Flag for Germany

Past Weather in Dülmen, North Rhine-Westphalia, Germany — Yesterday and Last 2 Weeks

Now
68 °F

Sunny.


Feels Like: 68 °F
Forecast: 78 / 67 °F
Wind: 3 mph from West

Location: Dortmund / Wickede
Current Time: Aug 13, 2020 at 7:28:30 am
Latest Report: Aug 13, 2020 at 6:50 am
Visibility: 10 mi
Pressure29.89 "Hg
Humidity: 78%
Dew Point: 61 °F
Location of DülmenLocation

Past Weather in Dülmen — Graph

°F

Dülmen Temperature Yesterday

Maximum temperature yesterday: 88 °F (at 2:20 pm)
Minimum temperature yesterday: 68 °F (at 3:20 am)
Average temperature yesterday: 77 °F

High & Low Weather Summary for the Past Weeks

 TemperatureHumidityPressure
High95 °F (Aug 8, 4:20 pm)100% (Aug 2, 1:50 am)30.18 "Hg (Aug 2, 1:50 am)
Low48 °F (Aug 3, 5:50 am)20% (Aug 7, 5:20 pm)29.86 "Hg (Aug 3, 5:20 pm)
Average73 °F56%30.03 "Hg
* Reported Jul 29 6:20 am — Aug 13 6:20 am, Dülmen. Weather by CustomWeather, © 2020

Note: Actual official high and low records may vary slightly from our data, if they occured in-between our weather recording intervals... More about our weather records

Dülmen Weather History for the Previous 24 Hours

Scroll right to see more
 ConditionsComfort  
Time TempWeatherWind HumidityBarometerVisibility
6:20 am
Thu, Aug 13
68 °FSunny.No wind73%29.89 "Hg10 mi
5:50 am68 °FClear.No wind73%29.89 "Hg10 mi
5:20 am68 °FClear.2 mph73%29.89 "Hg10 mi
4:50 am70 °FPassing clouds.6 mph69%29.89 "HgN/A
4:20 am68 °FPassing clouds.7 mph73%29.89 "HgN/A
3:20 am68 °FPassing clouds.2 mph73%29.92 "HgN/A
2:50 am70 °FPassing clouds.5 mph69%29.92 "HgN/A
2:20 am72 °FClear.6 mph65%29.92 "HgN/A
1:50 am72 °FPassing clouds.6 mph65%29.92 "HgN/A
1:20 am72 °FClear.6 mph65%29.95 "HgN/A
12:50 am70 °FClear.6 mph69%29.95 "HgN/A
12:20 am70 °FClear.2 mph69%29.92 "HgN/A
11:50 pm
Wed, Aug 12
70 °FClear.2 mph73%29.95 "HgN/A
11:20 pm72 °FClear.1 mph65%29.95 "HgN/A
10:50 pm73 °FClear.3 mph61%29.95 "HgN/A
10:20 pm75 °FClear.7 mph54%29.95 "HgN/A
9:20 pm77 °FPassing clouds.9 mph54%29.95 "HgN/A
8:50 pm79 °FPassing clouds.9 mph58%29.92 "HgN/A
8:20 pm81 °FPassing clouds.8 mph51%29.92 "HgN/A
7:50 pm81 °FPassing clouds.9 mph51%29.92 "HgN/A
7:20 pm81 °FPassing clouds.10 mph51%29.92 "HgN/A
6:50 pm81 °FPassing clouds.10 mph51%29.92 "HgN/A
6:20 pm82 °FPassing clouds.12 mph48%29.95 "HgN/A
5:50 pm84 °FSunny.15 mph45%29.95 "Hg10 mi
5:20 pm84 °FSunny.15 mph48%29.95 "Hg10 mi
4:50 pm84 °FPassing clouds.14 mph45%29.95 "HgN/A
4:20 pm84 °FSunny.14 mph48%29.95 "Hg10 mi
3:50 pm86 °FPassing clouds.13 mph43%29.98 "HgN/A
3:20 pm88 °FPassing clouds.13 mph35%29.98 "HgN/A
2:50 pm86 °FPassing clouds.13 mph43%29.98 "HgN/A
2:20 pm88 °FPassing clouds.14 mph38%29.98 "HgN/A
1:50 pm86 °FPassing clouds.14 mph43%29.98 "HgN/A
1:20 pm86 °FPassing clouds.12 mph40%30.01 "HgN/A
12:50 pm86 °FSunny.10 mph40%30.01 "Hg10 mi
12:20 pm84 °FSunny.13 mph43%30.01 "Hg10 mi
11:50 am82 °FPassing clouds.10 mph48%30.01 "HgN/A
11:20 am81 °FPassing clouds.12 mph51%30.01 "HgN/A
10:50 am81 °FPassing clouds.10 mph51%30.01 "HgN/A
10:20 am81 °FPassing clouds.10 mph51%30.01 "HgN/A
9:20 am79 °FPassing clouds.7 mph58%30.01 "HgN/A
8:50 am75 °FPassing clouds.3 mph61%30.01 "HgN/A
8:20 am72 °FSunny.2 mph73%30.01 "Hg10 mi
7:50 am72 °FSunny.3 mph73%29.98 "Hg10 mi
7:20 am68 °FSunny.3 mph83%29.98 "Hg10 mi
Weather by CustomWeather, © 2020

See weather overview